Vorticity
5 6 6 7 7 8 9 8 9 6 2 3 5 6 4 3 3 3 5 5 6 8 9 10 12 13 14 14 13 11 9 7 7 6 7 8 8 8 8 7 7 7 6 5 6 6 6 6 6 6 6 6 6 5 5 5 5 5 5 5 4 5 5 5 4 5 6 6 5 5 5 6 6 6 7 7 7 6 5 6 4 4 5 6 7
7 3 0 5 7 7 6 7 8 6 3 3 3 3 2 1 1 2 4 6 6 6 7 6 7 8 10 12 13 14 14 13 12 10 9 8 7 8 8 7 7 7 6 6 6 5 6 6 6 6 7 7 7 7 6 6 6 6 6 6 5 5 5 5 5 5 5 6 6 5 5 5 6 6 6 6 7 7 8 8 6 5 5 4 5
9 1 -1 5 3 2 5 5 4 4 4 3 2 4 4 2 2 4 6 7 7 6 5 4 4 5 6 7 8 8 10 12 13 14 15 15 14 12 11 10 9 9 8 7 7 6 5 4 4 4 5 5 5 6 6 6 6 6 6 6 6 6 6 6 5 5 5 5 5 5 5 5 6 6 7 7 7 6 6 7 7 7 7 6 6
5 1 4 7 1 3 10 8 4 4 4 4 4 5 7 5 4 6 4 3 5 7 6 5 5 4 3 1 1 1 4 7 8 9 10 11 12 12 10 10 9 9 9 8 8 8 8 8 7 5 4 3 3 3 4 5 5 6 6 6 6 6 7 7 7 7 7 6 5 5 5 5 5 5 6 6 7 7 7 8 8 6 6 6 6
5 4 5 5 4 7 9 5 4 6 4 3 5 5 6 5 4 3 0 -1 3 6 6 6 4 2 -1 -3 -2 1 4 5 4 5 6 6 5 5 6 7 7 8 8 8 7 7 6 7 7 6 5 5 6 5 5 5 6 6 7 7 7 7 7 8 9 9 9 9 9 8 8 8 7 8 9 7 8 9 9 9 10 10 10 9 7
5 5 5 5 6 6 6 4 5 8 6 5 6 6 5 5 4 5 6 6 6 6 5 4 3 1 -1 -1 0 2 4 6 4 2 4 5 5 5 4 2 1 2 4 6 8 7 7 6 4 3 3 4 6 8 8 8 9 9 9 9 8 9 9 9 9 10 11 12 12 12 12 12 12 14 15 14 14 15 14 13 14 15 16 15 14
6 7 6 7 7 7 8 9 7 7 7 6 7 5 6 8 6 4 6 8 9 10 8 5 4 3 2 3 2 -0 3 9 9 5 1 -2 -2 -1 1 2 0 1 2 2 3 4 5 6 6 6 6 7 6 6 5 5 7 8 10 10 10 10 10 10 9 9 10 12 14 14 16 17 17 17 15 14 14 13 14 15 14 14 14 14 15
8 7 4 5 8 7 7 7 6 4 4 6 7 5 7 9 7 4 5 5 6 11 11 7 4 4 4 4 3 1 -1 -1 3 6 4 -0 -1 -2 1 6 6 4 2 0 1 4 4 4 4 4 4 6 7 7 7 7 7 8 9 10 11 12 11 10 10 8 8 9 12 14 15 15 14 12 9 9 9 7 7 7 7 7 9 8 8
9 8 4 2 4 3 1 0 0 -1 -1 1 3 5 6 5 4 5 5 4 3 6 8 7 5 4 4 5 7 8 -0 -9 -3 8 5 4 11 15 17 18 14 8 5 3 4 6 6 6 8 8 7 5 5 6 6 7 8 9 9 8 7 8 10 11 12 10 9 10 12 12 8 4 3 4 5 5 5 3 2 1 0 0 2 3 2
5 6 5 3 3 2 1 -1 -1 0 -0 -1 0 2 3 2 2 4 5 3 3 3 3 4 6 5 2 0 4 9 3 -6 -1 7 3 1 6 9 11 13 12 12 12 10 9 8 6 6 11 15 16 12 10 9 7 6 7 8 9 9 7 7 8 9 11 12 11 11 12 10 5 -2 -4 -1 1 3 3 1 -0 -1 -2 -3 -2 -1 -1
7 6 5 6 5 3 2 2 2 3 3 3 3 3 3 3 4 5 5 5 4 2 1 1 3 6 4 0 0 3 2 -1 -0 2 2 -1 -6 -11 -10 -8 -6 -2 1 2 3 3 1 1 4 9 13 13 10 6 3 2 3 4 6 7 7 8 10 11 9 10 12 12 11 8 3 -2 -4 -4 -2 0 2 2 1 -0 -1 -2 -3 -3 -2
8 9 10 10 9 7 7 7 6 6 6 6 7 7 8 8 8 7 8 9 9 7 4 -0 -0 3 4 3 2 2 2 2 3 3 3 1 -1 -3 -3 -3 -3 -2 -1 -0 0 -2 -3 -1 1 3 6 8 6 2 -1 0 3 4 5 6 7 6 8 11 10 7 9 12 13 11 6 1 -3 -4 -4 -3 -1 0 1 1 1 1 0 -2 -3
1 2 2 3 4 5 6 6 6 6 7 7 8 9 8 8 7 6 6 6 9 9 7 5 3 1 0 0 2 3 3 2 2 3 3 4 4 4 4 4 5 6 7 8 8 7 7 7 8 7 6 5 4 1 -2 -3 -0 4 4 5 9 10 8 10 10 7 6 8 10 12 11 6 3 1 -1 -3 -4 -3 -3 -2 -0 1 2 2 -1
9 7 5 4 4 3 3 3 3 3 4 5 6 7 6 6 6 5 5 4 5 5 5 5 4 1 -1 -1 0 2 3 3 2 2 3 3 4 4 5 6 7 9 10 10 9 10 12 12 11 10 9 8 7 5 1 -3 1 8 6 -0 1 6 7 8 10 9 8 8 8 10 13 12 10 7 5 2 0 -1 -2 -3 -3 -1 -1 1 3
13 13 12 11 11 10 9 8 8 7 6 7 7 7 7 7 7 7 9 9 8 8 7 6 5 3 2 3 3 4 4 4 5 5 5 4 4 6 7 8 8 9 10 11 11 11 12 12 11 10 9 10 10 9 8 7 9 14 11 1 -6 -4 -0 4 8 9 9 8 6 5 8 13 14 12 9 6 5 4 2 1 0 -0 -1 -0 3
12 13 13 13 13 13 13 12 12 12 12 12 12 11 10 10 9 9 10 10 12 12 11 10 10 10 10 10 10 10 9 9 10 10 10 10 10 10 10 11 10 10 9 9 10 11 12 14 14 12 9 9 9 9 9 9 8 10 10 5 -1 -2 1 5 8 9 9 10 9 6 5 7 10 10 8 7 7 6 4 2 1 1 -0 0 2
12 13 13 14 14 15 15 15 15 14 15 14 13 12 12 12 12 12 11 11 12 12 12 12 12 12 13 13 13 12 12 12 11 10 10 10 10 10 10 9 10 10 11 12 14 16 16 16 14 14 13 12 11 11 11 10 9 9 10 9 7 7 8 9 8 7 7 9 11 12 11 10 10 11 10 8 7 6 5 3 2 3 2 1 2
13 13 13 13 13 14 14 15 15 14 14 15 14 13 13 12 11 11 11 11 11 11 11 11 10 10 10 10 10 10 9 9 8 8 9 10 11 11 11 11 12 11 11 12 14 12 9 7 8 11 13 14 13 14 14 15 14 14 13 14 13 12 12 11 9 8 7 7 10 12 13 12 11 10 10 9 6 5 4 3 2 4 5 4 4
12 12 13 13 12 12 12 12 12 13 12 12 13 13 13 13 12 12 11 11 10 10 9 9 9 9 8 8 8 8 8 9 10 10 10 11 11 12 13 13 12 11 10 10 8 5 6 10 13 15 17 16 16 16 15 14 15 14 14 14 14 14 14 14 13 12 10 9 9 10 11 12 10 8 7 6 5 6 7 7 5 5 5 4 3
12 12 12 11 11 11 11 11 11 11 11 10 11 11 12 12 12 12 12 12 11 11 11 10 10 9 9 10 9 9 10 11 11 10 11 11 11 11 11 11 11 11 11 11 9 9 13 14 13 13 10 5 4 7 9 11 12 12 12 12 11 11 12 13 14 14 14 13 11 10 10 9 8 9 8 7 6 6 6 6 6 5 4 4 5
12 12 12 12 11 11 10 10 10 10 10 10 9 9 10 11 11 12 12 12 13 13 13 13 13 13 13 13 13 13 14 14 13 12 11 11 10 9 9 10 10 10 11 11 12 15 16 15 14 10 -0 -6 -1 7 10 10 9 8 9 9 9 9 9 9 9 10 10 10 10 10 9 7 7 8 8 6 4 2 1 2 3 3 4 5 6
14 15 16 16 16 15 14 13 12 11 10 9 9 9 9 9 10 10 10 11 11 12 13 13 13 13 13 13 14 15 15 14 13 12 11 11 11 10 9 8 8 8 9 9 10 10 9 8 5 -4 -13 -8 6 11 8 6 5 5 7 8 8 10 11 11 12 12 11 10 9 8 8 8 7 5 2 1 1 2 4 3 -1 -2 1 5 7
15 14 12 11 13 15 16 15 15 14 13 13 12 11 10 10 10 10 11 11 10 10 10 10 10 10 11 11 10 9 9 8 6 5 6 7 7 7 7 7 7 8 9 9 10 10 8 4 -2 -7 -4 8 15 10 6 6 6 6 8 10 11 13 15 15 15 14 14 14 14 13 11 9 8 7 7 6 5 4 2 -2 -3 1 6 8 6
14 12 9 8 10 12 14 14 15 15 15 15 14 13 13 12 12 12 13 13 12 11 10 9 9 9 8 7 7 7 5 4 4 5 6 7 7 7 8 8 9 10 11 13 14 15 14 12 11 13 16 16 12 8 6 7 7 9 11 14 16 18 20 21 22 20 18 17 17 18 18 16 13 11 9 9 8 7 7 6 6 8 7 3 1
12 12 11 10 11 12 12 11 11 11 12 12 12 11 11 11 11 12 12 12 12 11 9 9 9 9 9 10 10 10 10 11 13 15 16 16 15 14 15 16 17 18 18 18 19 18 19 19 21 22 17 10 7 8 7 7 8 10 12 13 14 15 15 17 18 20 20 19 17 17 18 18 18 16 14 13 12 10 9 7 5 5 7 11 18
11 10 9 9 10 11 11 10 10 10 10 9 8 8 8 8 9 9 10 12 14 15 15 16 16 18 20 21 20 21 24 25 23 21 21 21 21 23 24 24 24 24 24 23 21 19 17 16 14 12 9 8 9 9 8 8 9 10 11 11 11 10 9 9 9 11 12 12 11 9 9 11 14 15 14 13 12 11 12 14 17 23 28 31 32
9 8 9 11 12 12 12 13 13 13 13 13 14 14 14 15 18 20 22 24 25 25 26 27 29 30 30 28 27 28 27 25 22 21 21 20 20 21 21 20 19 20 21 22 21 18 15 13 11 10 10 11 11 10 9 10 12 13 13 12 10 9 8 7 7 6 6 6 7 9 12 15 17 18 18 21 24 26 29 32 34 36 34 30 26
8 9 10 11 11 12 13 15 16 20 23 26 29 30 31 32 32 32 31 30 29 31 34 35 35 33 30 27 27 25 21 18 19 21 23 21 19 17 14 13 13 13 14 16 17 18 18 16 15 15 14 13 12 13 14 15 15 13 11 8 7 6 4 4 7 11 16 20 23 25 27 28 28 29 31 33 34 34 33 33 31 29 27 24 23
12 13 15 17 19 22 24 27 31 33 35 35 34 32 32 31 29 27 28 29 31 32 32 29 25 21 18 16 15 13 12 12 14 15 16 17 16 15 12 11 12 12 13 15 16 16 17 17 16 15 14 13 13 14 14 12 9 6 6 7 9 11 16 21 26 29 31 32 31 29 27 26 27 28 30 30 30 28 26 23 21 18 17 17 18
30 33 35 36 37 36 35 35 34 31 30 28 22 19 22 26 26 26 25 24 21 18 15 13 12 9 7 7 9 11 13 15 16 15 14 13 12 12 12 13 14 14 13 14 14 13 13 13 13 13 12 12 13 13 13 14 15 17 21 25 27 29 30 29 27 26 25 24 24 23 22 22 23 25 25 24 21 17 14 12 13 15 17 18 18
42 42 40 36 32 29 25 24 22 20 22 21 13 10 18 26 24 20 15 11 10 11 10 10 9 8 9 12 14 16 17 15 14 12 11 11 12 12 13 13 12 11 10 10 11 12 11 12 13 14 15 17 19 22 24 26 27 26 26 24 22 19 17 15 17 21 23 23 22 21 20 21 21 20 17 14 11 10 12 15 19 22 24 25 22
31 27 24 23 23 23 23 24 23 21 18 14 6 4 10 16 14 10 8 9 13 15 14 13 13 12 13 12 11 11 11 10 11 11 12 12 11 10 10 9 8 8 8 8 9 10 10 12 13 14 16 17 18 19 19 17 16 15 14 14 14 14 16 20 24 25 21 18 17 17 17 17 16 13 11 10 11 13 15 18 20 19 20 23 24
17 15 21 29 32 34 33 28 23 19 15 10 8 9 10 12 11 11 14 17 18 17 14 12 11 9 10 10 11 12 12 11 11 10 9 8 8 7 7 7 6 6 7 9 10 11 12 13 14 13 13 14 15 16 17 18 20 22 23 26 29 29 29 27 24 19 14 13 15 17 17 16 14 13 12 11 12 14 14 13 13 13 14 17 18
9 9 20 27 27 29 28 19 14 15 16 15 16 16 16 18 19 20 20 17 12 8 5 4 6 9 14 16 15 12 10 9 8 7 7 7 7 6 6 7 7 9 11 13 15 16 16 17 17 16 18 21 23 26 27 29 32 34 36 36 34 30 25 20 18 17 18 21 23 24 23 21 18 17 16 15 15 14 13 12 12 14 16 18 20
9 7 15 17 15 19 20 18 20 23 22 22 24 22 20 19 17 13 10 6 6 10 14 16 18 18 16 13 10 8 7 8 7 7 6 6 5 6 9 11 13 16 17 17 17 17 18 19 20 23 26 28 29 29 31 34 35 34 31 27 22 19 18 20 22 24 25 25 26 25 24 22 21 18 17 15 13 12 12 12 13 14 14 16 19
15 16 13 6 5 7 4 6 14 18 14 14 17 16 12 8 5 5 10 15 20 24 24 20 17 12 9 8 8 8 7 6 6 6 6 8 10 13 14 15 16 16 16 15 15 16 18 22 26 28 27 28 30 31 31 31 26 21 17 15 15 18 23 25 24 22 20 19 18 16 13 12 12 13 14 15 16 16 15 13 11 9 9 11 14
15 19 13 6 6 5 -1 -2 4 5 1 1 6 9 10 12 15 20 23 23 19 15 11 9 9 9 9 9 7 5 5 5 8 11 13 15 17 16 14 14 14 14 14 13 13 16 21 26 27 25 26 32 36 32 25 19 13 10 12 17 21 22 20 18 14 12 10 9 7 5 6 8 11 14 17 17 16 13 10 8 7 9 13 16 17
4 7 11 16 17 12 6 5 6 4 2 7 14 19 21 23 23 21 16 12 9 8 8 9 9 8 7 5 4 6 8 11 13 16 16 15 14 13 12 13 13 12 13 12 12 17 24 26 24 24 32 40 37 26 17 11 7 10 18 23 21 15 11 10 9 8 6 6 8 12 15 16 15 14 12 12 12 12 13 16 19 22 24 25 25
3 1 4 7 8 6 5 10 14 14 14 19 23 23 21 18 14 10 9 9 9 9 8 7 6 5 6 6 8 9 10 10 12 12 11 10 11 11 12 12 12 12 12 10 12 20 26 26 23 27 38 40 29 19 14 8 5 14 25 24 16 12 10 9 8 8 11 15 18 16 12 8 8 12 17 23 27 29 30 31 31 31 28 26 26
11 9 5 3 4 7 12 19 24 22 21 21 19 16 13 10 9 9 10 9 7 7 6 6 6 7 8 8 8 7 5 6 8 7 6 8 10 11 11 11 11 11 11 10 13 21 26 24 23 31 39 35 22 14 11 6 8 22 29 19 10 10 11 10 13 18 20 18 13 9 10 15 22 29 33 34 31 28 27 28 28 28 27 27 27
15 16 18 18 17 17 20 23 22 18 16 15 12 11 10 9 9 9 8 6 6 6 6 6 6 7 7 6 4 3 4 5 5 5 6 8 9 10 11 11 10 10 11 10 12 19 24 23 25 33 37 29 18 14 11 7 17 30 27 12 7 9 10 14 19 18 15 15 19 25 31 34 33 30 27 24 21 20 20 22 23 26 28 27 27
13 13 16 17 17 18 20 19 16 13 12 11 10 10 10 9 8 8 6 5 6 6 5 6 7 6 5 3 3 4 5 4 4 4 5 6 8 10 11 11 9 9 11 10 10 17 23 23 25 34 36 25 19 18 11 10 24 32 20 8 7 8 9 13 12 5 9 23 33 33 27 22 20 21 22 24 26 27 25 23 23 23 23 23 26
9 9 11 12 14 16 16 15 13 11 11 10 9 11 11 9 8 6 4 5 6 5 5 7 6 4 4 4 3 4 3 2 3 4 4 5 8 9 10 11 9 9 11 10 9 15 22 21 25 36 35 23 20 22 15 17 30 28 12 8 10 6 6 10 5 2 18 35 31 18 13 12 16 22 25 26 28 29 27 26 24 21 23 27 27
8 8 10 11 13 14 14 14 13 11 11 11 11 11 11 9 6 4 5 6 7 6 6 6 4 3 4 3 3 3 3 2 3 3 3 4 7 8 9 11 9 8 10 10 8 13 19 20 26 37 35 23 21 25 25 28 31 20 8 11 12 5 5 8 6 14 34 37 17 6 9 11 13 18 20 21 24 26 27 32 35 31 26 23 17
12 13 13 13 14 13 13 12 12 11 10 11 11 10 9 7 4 5 7 8 7 7 6 5 3 3 3 3 4 4 3 3 3 3 3 5 6 7 9 11 10 8 10 10 8 11 17 19 26 37 38 23 11 14 23 30 27 16 9 9 7 4 5 6 10 28 42 27 3 2 14 17 17 18 17 16 17 17 17 24 33 35 28 20 15
15 16 16 15 14 14 13 11 11 10 9 9 10 9 8 6 5 6 8 7 7 7 6 4 4 3 3 3 4 4 3 4 4 4 4 4 5 6 9 10 10 10 10 9 8 10 16 20 24 36 43 28 4 2 20 28 20 14 14 11 4 3 4 7 20 38 36 14 3 12 22 22 21 22 21 20 20 17 14 14 16 19 21 20 19
18 17 17 15 13 13 12 10 9 9 8 9 9 8 7 6 6 6 7 6 6 7 6 5 5 4 2 3 4 4 5 5 4 4 4 4 4 6 7 9 11 10 9 9 10 9 13 19 21 29 44 38 11 2 20 29 17 11 14 11 5 4 3 11 30 40 28 14 17 21 15 9 9 10 12 17 18 17 18 19 16 14 14 15 15
13 14 15 14 13 12 11 9 9 9 9 9 9 7 7 7 6 6 6 6 6 6 5 5 5 4 3 4 4 3 4 5 4 4 5 4 3 5 5 8 12 11 8 10 11 8 10 18 19 24 42 46 20 1 13 27 21 13 9 3 -1 -0 4 17 34 35 23 19 21 12 1 2 5 3 3 8 10 11 13 14 17 20 19 15 15
3 7 11 13 14 15 13 11 10 10 10 10 9 8 7 6 6 6 7 6 5 5 5 5 6 5 3 4 4 3 4 5 4 4 4 3 3 5 4 5 11 11 8 9 12 9 9 15 17 21 39 49 31 8 6 17 23 24 18 6 -4 -5 5 25 39 33 21 18 12 -0 -2 6 7 2 2 6 10 17 17 11 10 17 21 18 18
2 4 6 8 11 14 16 14 12 10 10 10 9 8 8 7 6 7 7 6 5 5 4 5 6 6 4 4 4 3 4 4 4 4 5 4 3 4 3 4 8 10 9 9 11 10 10 12 15 20 34 46 40 22 10 10 18 25 21 9 -1 -3 10 31 39 27 15 11 4 -4 1 7 2 -3 -4 -5 -1 15 26 19 11 12 12 9 10
1 2 3 4 5 8 13 15 13 11 9 9 8 8 8 8 7 7 6 6 6 5 5 6 6 6 5 5 5 3 3 4 4 4 4 4 3 4 4 3 5 8 9 9 9 10 11 11 11 17 29 42 44 33 17 9 14 17 11 3 2 6 19 33 31 14 6 8 3 -3 2 6 1 0 5 1 -2 8 20 20 17 17 13 6 7
Height
5716 5716 5716 5717 5717 5717 5717 5718 5719 5719 5720 5721 5720 5720 5720 5721 5722 5723 5723 5723 5723 5724 5724 5724 5724 5725 5725 5725 5726 5726 5726 5727 5727 5728 5728 5729 5729 5729 5730 5730 5731 5731 5732 5732 5733 5733 5734 5735 5735 5735 5736 5736 5737 5738 5738 5739 5739 5740 5741 5741 5742 5742 5743 5743 5744 5744 5744 5744 5744 5744 5744 5745 5745 5745 5745 5746 5746 5747 5748 5748 5749 5750 5751 5751 5752
5712 5713 5713 5714 5714 5714 5714 5715 5715 5716 5717 5717 5717 5717 5718 5718 5719 5719 5720 5720 5721 5721 5721 5721 5722 5722 5722 5722 5723 5723 5723 5724 5724 5725 5725 5725 5726 5726 5727 5727 5727 5728 5728 5728 5729 5729 5730 5730 5731 5731 5732 5732 5733 5733 5734 5734 5735 5736 5736 5737 5738 5739 5739 5740 5740 5741 5740 5740 5740 5740 5741 5741 5741 5741 5741 5742 5742 5742 5742 5743 5744 5745 5746 5747 5747
5709 5709 5710 5711 5711 5711 5711 5712 5712 5713 5713 5714 5714 5714 5715 5715 5716 5716 5717 5717 5718 5718 5719 5719 5719 5719 5719 5719 5720 5720 5721 5721 5721 5721 5722 5722 5722 5723 5723 5723 5724 5724 5724 5725 5725 5725 5726 5726 5727 5727 5728 5728 5728 5729 5729 5730 5730 5731 5731 5732 5733 5734 5735 5736 5736 5737 5737 5736 5735 5735 5736 5736 5736 5736 5736 5736 5737 5737 5737 5738 5739 5740 5741 5742 5743
5706 5706 5706 5707 5707 5708 5708 5708 5709 5709 5710 5710 5710 5711 5711 5712 5712 5713 5713 5714 5715 5715 5716 5716 5716 5716 5716 5716 5717 5717 5718 5718 5719 5719 5719 5719 5719 5720 5720 5720 5720 5720 5720 5720 5721 5721 5722 5722 5723 5723 5724 5724 5724 5725 5725 5726 5726 5726 5727 5727 5728 5728 5729 5730 5731 5732 5733 5732 5731 5731 5731 5731 5731 5731 5731 5731 5731 5732 5732 5732 5733 5734 5735 5736 5737
5701 5702 5702 5702 5703 5704 5704 5705 5705 5705 5706 5707 5707 5707 5707 5707 5708 5709 5709 5710 5710 5711 5711 5712 5712 5713 5713 5713 5714 5714 5715 5716 5716 5716 5716 5716 5716 5716 5716 5716 5716 5716 5716 5717 5717 5718 5718 5718 5719 5719 5719 5720 5720 5720 5721 5721 5721 5722 5722 5722 5723 5723 5724 5724 5725 5726 5726 5727 5727 5727 5726 5726 5726 5726 5726 5726 5727 5727 5727 5727 5728 5728 5729 5730 5730
5696 5697 5698 5698 5698 5699 5699 5700 5700 5701 5702 5702 5702 5703 5703 5703 5704 5704 5705 5705 5706 5707 5707 5707 5707 5708 5709 5710 5710 5711 5712 5712 5712 5712 5712 5712 5712 5712 5712 5712 5713 5713 5713 5714 5714 5714 5714 5714 5715 5715 5715 5715 5715 5716 5716 5716 5717 5717 5717 5717 5717 5718 5719 5719 5719 5720 5720 5721 5721 5721 5721 5721 5721 5721 5721 5721 5721 5722 5722 5723 5723 5723 5723 5724 5725
5691 5692 5693 5693 5693 5694 5694 5695 5695 5696 5697 5697 5697 5698 5698 5699 5699 5700 5700 5701 5701 5702 5702 5702 5703 5703 5704 5705 5706 5706 5707 5708 5708 5708 5708 5708 5708 5708 5709 5709 5709 5709 5709 5709 5710 5710 5710 5710 5711 5711 5711 5711 5711 5711 5711 5711 5712 5712 5712 5712 5712 5712 5713 5713 5714 5714 5714 5715 5715 5715 5715 5716 5716 5716 5716 5716 5716 5716 5717 5717 5718 5718 5718 5718 5719
5686 5687 5687 5687 5687 5688 5689 5689 5690 5690 5691 5691 5692 5693 5693 5694 5694 5695 5695 5696 5697 5697 5697 5698 5698 5698 5699 5700 5701 5701 5702 5702 5703 5703 5703 5702 5702 5703 5704 5704 5704 5704 5704 5705 5705 5705 5705 5705 5705 5705 5705 5705 5706 5706 5706 5706 5706 5707 5707 5707 5707 5707 5707 5707 5708 5708 5709 5709 5709 5709 5710 5710 5711 5711 5711 5711 5711 5711 5711 5712 5712 5712 5712 5712 5713
5680 5681 5682 5682 5682 5682 5683 5684 5684 5685 5685 5686 5687 5688 5689 5689 5689 5690 5690 5691 5691 5692 5692 5693 5693 5693 5694 5694 5695 5695 5696 5696 5696 5696 5697 5697 5697 5697 5698 5698 5698 5699 5699 5699 5700 5700 5700 5700 5700 5700 5699 5699 5700 5700 5700 5701 5701 5702 5701 5701 5701 5701 5701 5702 5702 5702 5703 5703 5704 5704 5704 5705 5705 5706 5706 5705 5705 5706 5706 5706 5706 5707 5707 5707 5707
5674 5675 5676 5676 5677 5677 5677 5678 5679 5679 5680 5681 5681 5682 5683 5684 5684 5684 5685 5685 5685 5686 5687 5687 5688 5688 5688 5688 5688 5689 5690 5690 5690 5690 5691 5691 5692 5692 5693 5693 5693 5694 5694 5694 5694 5694 5694 5694 5694 5694 5694 5693 5693 5694 5694 5694 5695 5695 5696 5696 5696 5696 5696 5696 5696 5696 5697 5697 5698 5698 5699 5699 5699 5699 5700 5700 5699 5699 5700 5700 5701 5701 5701 5701 5701
5668 5668 5669 5670 5670 5671 5672 5672 5673 5674 5675 5675 5675 5676 5677 5678 5678 5678 5679 5680 5679 5680 5681 5681 5681 5682 5682 5682 5682 5682 5683 5684 5684 5685 5685 5686 5686 5686 5687 5688 5688 5689 5689 5689 5689 5689 5689 5689 5689 5689 5688 5688 5687 5687 5688 5688 5688 5688 5689 5690 5690 5690 5690 5690 5690 5690 5690 5691 5692 5693 5693 5693 5693 5693 5693 5693 5693 5693 5693 5694 5694 5695 5695 5695 5696
5661 5661 5662 5662 5663 5664 5665 5666 5667 5668 5669 5669 5670 5670 5671 5671 5672 5672 5673 5673 5673 5674 5675 5674 5675 5675 5676 5676 5676 5676 5677 5677 5678 5679 5680 5680 5680 5680 5680 5681 5682 5683 5683 5684 5684 5684 5684 5684 5683 5683 5683 5682 5682 5681 5681 5682 5682 5682 5682 5682 5683 5683 5683 5683 5683 5683 5684 5684 5686 5686 5687 5686 5686 5686 5686 5686 5686 5686 5686 5686 5686 5687 5688 5689 5690
5653 5654 5654 5655 5655 5657 5658 5659 5660 5661 5662 5663 5663 5664 5664 5665 5665 5666 5666 5667 5667 5668 5668 5667 5668 5668 5669 5669 5669 5669 5670 5671 5671 5672 5673 5673 5673 5672 5673 5674 5675 5676 5676 5677 5677 5677 5677 5677 5677 5676 5676 5676 5675 5675 5674 5675 5675 5675 5675 5675 5675 5675 5675 5676 5676 5676 5676 5677 5678 5679 5679 5679 5679 5679 5679 5679 5679 5679 5679 5679 5678 5679 5679 5680 5682
5645 5645 5646 5647 5648 5650 5651 5652 5653 5654 5655 5656 5656 5657 5657 5658 5658 5659 5659 5660 5661 5661 5661 5661 5661 5662 5662 5662 5662 5663 5664 5665 5665 5666 5666 5665 5665 5666 5666 5667 5667 5668 5668 5669 5669 5669 5670 5670 5669 5669 5669 5668 5668 5668 5667 5667 5667 5668 5668 5668 5668 5668 5668 5668 5668 5668 5668 5669 5670 5671 5671 5670 5671 5671 5670 5670 5671 5671 5672 5672 5671 5671 5671 5672 5673
5636 5637 5638 5639 5640 5642 5643 5644 5645 5646 5647 5648 5649 5649 5650 5650 5651 5651 5652 5652 5653 5654 5654 5654 5654 5655 5655 5655 5656 5657 5658 5659 5659 5659 5658 5658 5659 5659 5660 5660 5660 5660 5660 5660 5661 5661 5661 5662 5661 5661 5661 5661 5660 5660 5660 5659 5660 5660 5660 5660 5660 5660 5660 5661 5660 5660 5659 5660 5660 5661 5662 5662 5662 5662 5662 5662 5662 5662 5663 5663 5664 5664 5664 5664 5665
5628 5629 5630 5631 5633 5634 5635 5636 5637 5638 5639 5640 5641 5641 5642 5642 5643 5643 5644 5645 5646 5646 5647 5647 5647 5647 5647 5648 5649 5651 5651 5652 5652 5652 5652 5652 5652 5653 5653 5653 5652 5652 5652 5652 5653 5653 5653 5653 5653 5653 5653 5652 5652 5652 5652 5651 5652 5652 5652 5652 5653 5653 5653 5653 5652 5651 5651 5651 5652 5652 5652 5652 5652 5653 5653 5652 5652 5652 5652 5654 5655 5654 5655 5656 5656
5620 5621 5622 5623 5625 5626 5627 5628 5629 5630 5631 5631 5632 5633 5634 5634 5635 5635 5636 5637 5638 5638 5639 5639 5640 5639 5639 5641 5643 5643 5643 5644 5645 5645 5645 5646 5646 5646 5645 5645 5645 5645 5644 5644 5645 5645 5645 5645 5645 5644 5644 5644 5644 5644 5644 5643 5643 5644 5644 5644 5644 5644 5645 5644 5643 5643 5642 5643 5643 5642 5642 5643 5643 5643 5643 5643 5643 5642 5641 5644 5644 5643 5644 5646 5647
5612 5614 5615 5616 5616 5617 5618 5620 5621 5622 5622 5623 5624 5625 5625 5626 5627 5627 5628 5629 5629 5630 5631 5631 5632 5632 5632 5634 5635 5635 5635 5636 5637 5638 5639 5639 5639 5638 5637 5637 5637 5637 5636 5636 5637 5637 5637 5637 5637 5636 5636 5635 5635 5635 5635 5635 5635 5635 5635 5635 5635 5636 5635 5634 5634 5634 5634 5634 5634 5633 5633 5633 5632 5633 5633 5633 5633 5631 5631 5634 5633 5631 5633 5636 5636
5605 5606 5607 5608 5609 5610 5611 5612 5613 5614 5614 5615 5616 5616 5617 5618 5619 5619 5620 5621 5622 5622 5623 5623 5624 5624 5625 5626 5627 5627 5628 5629 5630 5631 5631 5631 5630 5630 5629 5629 5629 5629 5628 5629 5629 5629 5628 5628 5628 5628 5627 5627 5626 5626 5626 5626 5626 5626 5626 5627 5627 5627 5625 5624 5625 5625 5625 5625 5624 5624 5624 5623 5623 5623 5623 5623 5622 5621 5621 5622 5621 5621 5624 5625 5624
5597 5599 5599 5600 5601 5602 5603 5604 5605 5606 5606 5607 5608 5609 5609 5610 5610 5611 5612 5613 5613 5614 5615 5615 5616 5617 5618 5618 5618 5619 5620 5621 5622 5622 5622 5622 5622 5621 5621 5621 5621 5621 5621 5621 5621 5621 5620 5619 5619 5619 5620 5620 5619 5618 5617 5617 5617 5617 5617 5618 5618 5617 5616 5616 5616 5615 5615 5615 5615 5614 5614 5613 5613 5613 5613 5612 5612 5611 5611 5610 5609 5609 5612 5613 5613
5590 5591 5591 5592 5594 5595 5595 5596 5597 5598 5599 5599 5600 5601 5601 5602 5602 5603 5604 5605 5605 5606 5607 5607 5607 5608 5610 5610 5611 5612 5613 5614 5614 5615 5615 5614 5614 5613 5613 5613 5614 5614 5614 5614 5614 5613 5613 5612 5611 5611 5611 5612 5611 5610 5609 5609 5608 5608 5608 5608 5607 5607 5606 5606 5606 5605 5604 5604 5604 5604 5604 5603 5603 5603 5602 5601 5601 5601 5601 5600 5598 5598 5598 5599 5600
5582 5583 5584 5585 5586 5586 5587 5588 5589 5590 5591 5591 5592 5593 5594 5594 5594 5595 5596 5597 5597 5598 5598 5599 5600 5600 5602 5603 5604 5605 5606 5606 5607 5607 5607 5606 5606 5605 5606 5606 5606 5606 5606 5606 5606 5605 5605 5605 5604 5603 5603 5603 5602 5602 5601 5600 5599 5599 5598 5597 5596 5595 5594 5594 5594 5594 5593 5593 5592 5592 5593 5592 5592 5591 5591 5591 5591 5590 5590 5590 5588 5587 5587 5587 5587
5574 5575 5576 5577 5578 5578 5579 5580 5581 5582 5583 5584 5584 5585 5586 5586 5586 5587 5588 5589 5589 5590 5591 5592 5592 5593 5594 5596 5597 5597 5598 5599 5599 5599 5599 5598 5598 5599 5599 5599 5598 5598 5598 5598 5598 5598 5597 5597 5596 5595 5595 5595 5594 5593 5592 5591 5590 5589 5588 5586 5585 5584 5583 5583 5582 5581 5581 5581 5581 5581 5581 5581 5581 5580 5579 5579 5579 5579 5579 5578 5577 5576 5575 5576 5575
5566 5567 5568 5569 5570 5571 5571 5572 5573 5574 5575 5576 5577 5578 5578 5578 5579 5580 5581 5581 5582 5582 5583 5584 5585 5586 5587 5589 5590 5590 5591 5591 5591 5591 5591 5591 5591 5591 5591 5591 5590 5590 5590 5589 5589 5589 5588 5588 5587 5587 5586 5586 5586 5585 5584 5582 5581 5579 5578 5577 5575 5574 5573 5572 5571 5570 5570 5570 5570 5570 5570 5569 5569 5568 5568 5567 5567 5567 5567 5567 5566 5564 5564 5564 5564
5559 5560 5561 5561 5562 5563 5564 5565 5565 5566 5567 5568 5569 5570 5570 5571 5571 5572 5573 5574 5574 5575 5576 5577 5578 5579 5580 5581 5582 5582 5583 5583 5583 5583 5584 5584 5584 5584 5583 5583 5582 5582 5581 5581 5580 5580 5580 5579 5579 5578 5578 5578 5577 5576 5575 5573 5572 5570 5569 5567 5565 5565 5563 5562 5562 5561 5561 5560 5560 5559 5559 5558 5557 5557 5556 5556 5555 5555 5555 5555 5554 5554 5553 5552 5552
5551 5552 5552 5553 5554 5555 5556 5557 5557 5558 5559 5560 5561 5561 5562 5562 5563 5564 5565 5566 5567 5568 5568 5570 5571 5572 5573 5574 5574 5575 5576 5576 5576 5577 5577 5577 5576 5576 5576 5575 5575 5574 5574 5573 5573 5572 5572 5572 5571 5571 5570 5569 5568 5567 5566 5564 5562 5561 5559 5557 5556 5555 5554 5553 5553 5552 5551 5551 5550 5550 5549 5548 5547 5546 5545 5545 5545 5544 5543 5543 5543 5543 5542 5541 5541
5543 5544 5544 5545 5545 5546 5547 5547 5548 5549 5550 5551 5552 5552 5553 5554 5555 5556 5557 5558 5559 5560 5561 5563 5564 5565 5566 5567 5567 5569 5569 5570 5570 5570 5570 5570 5570 5570 5570 5570 5569 5568 5568 5567 5566 5566 5565 5564 5564 5563 5562 5561 5560 5558 5556 5555 5553 5551 5550 5548 5547 5546 5545 5544 5544 5543 5542 5541 5540 5540 5539 5537 5536 5535 5534 5534 5534 5533 5532 5531 5532 5532 5531 5530 5530
5535 5535 5536 5536 5537 5537 5538 5538 5539 5540 5541 5542 5542 5543 5544 5546 5547 5548 5549 5550 5552 5553 5554 5556 5557 5559 5560 5561 5562 5563 5564 5565 5565 5565 5565 5565 5565 5565 5565 5565 5564 5563 5562 5561 5560 5559 5558 5557 5556 5555 5553 5552 5550 5548 5546 5545 5543 5542 5541 5539 5538 5537 5536 5535 5534 5533 5532 5531 5530 5530 5528 5527 5526 5525 5524 5524 5524 5522 5521 5521 5522 5522 5521 5520 5521
5527 5527 5527 5527 5528 5529 5529 5530 5531 5532 5533 5534 5535 5536 5538 5539 5541 5542 5543 5545 5546 5548 5550 5551 5553 5554 5556 5557 5558 5559 5560 5560 5561 5561 5561 5561 5561 5561 5561 5560 5559 5558 5556 5555 5554 5552 5551 5549 5548 5546 5544 5543 5541 5539 5537 5536 5534 5533 5531 5530 5528 5527 5526 5525 5524 5523 5522 5521 5520 5519 5518 5517 5516 5515 5514 5514 5514 5513 5512 5513 5513 5512 5512 5512 5513
5519 5518 5519 5519 5520 5521 5522 5523 5525 5526 5528 5529 5530 5531 5533 5535 5536 5538 5539 5541 5543 5545 5546 5548 5550 5552 5553 5554 5555 5556 5556 5557 5557 5557 5558 5557 5557 5557 5556 5555 5554 5552 5551 5549 5547 5546 5544 5542 5540 5538 5536 5534 5532 5531 5529 5527 5526 5524 5522 5521 5519 5518 5516 5515 5514 5513 5512 5511 5510 5509 5508 5507 5506 5506 5505 5505 5505 5505 5505 5505 5504 5504 5504 5504 5504
5512 5512 5512 5513 5514 5515 5517 5518 5520 5522 5524 5526 5527 5528 5531 5532 5534 5535 5537 5539 5540 5542 5544 5546 5547 5549 5550 5551 5552 5553 5553 5553 5554 5554 5554 5553 5553 5552 5551 5550 5549 5547 5545 5543 5541 5539 5537 5534 5532 5530 5528 5526 5524 5523 5521 5519 5517 5515 5513 5511 5509 5508 5507 5505 5504 5503 5503 5502 5501 5500 5500 5499 5498 5498 5498 5498 5498 5498 5497 5497 5496 5496 5496 5496 5497
5508 5508 5508 5509 5510 5511 5513 5515 5517 5518 5521 5523 5525 5526 5529 5530 5532 5533 5535 5536 5538 5539 5541 5543 5544 5546 5547 5548 5549 5550 5550 5550 5550 5550 5550 5550 5549 5548 5547 5546 5544 5542 5540 5537 5535 5533 5530 5528 5525 5523 5521 5519 5517 5514 5512 5510 5508 5506 5504 5502 5500 5499 5498 5497 5496 5495 5495 5494 5494 5493 5492 5492 5491 5491 5491 5491 5491 5491 5490 5489 5489 5488 5488 5488 5489
5506 5505 5505 5506 5507 5508 5510 5512 5514 5516 5518 5520 5522 5525 5527 5528 5529 5531 5532 5534 5535 5537 5539 5540 5542 5543 5544 5545 5546 5547 5547 5547 5547 5547 5547 5547 5546 5544 5543 5541 5539 5537 5535 5532 5530 5527 5525 5522 5519 5516 5514 5511 5508 5506 5503 5501 5499 5497 5495 5493 5492 5491 5490 5490 5489 5488 5488 5488 5487 5486 5485 5485 5485 5485 5484 5484 5484 5484 5483 5482 5482 5481 5481 5481 5482
5504 5504 5504 5505 5505 5507 5508 5510 5512 5514 5516 5518 5520 5522 5524 5526 5527 5529 5530 5532 5533 5535 5536 5538 5539 5540 5542 5543 5543 5544 5545 5545 5545 5545 5544 5543 5542 5541 5539 5538 5536 5534 5531 5528 5525 5522 5519 5516 5512 5509 5506 5503 5500 5497 5495 5492 5490 5489 5487 5486 5486 5485 5484 5484 5483 5483 5482 5481 5480 5479 5479 5478 5478 5478 5478 5478 5477 5477 5476 5476 5475 5475 5475 5475 5476
5503 5503 5504 5504 5505 5507 5508 5510 5512 5513 5515 5517 5519 5520 5522 5523 5525 5527 5528 5530 5531 5533 5534 5536 5537 5538 5540 5541 5542 5542 5542 5543 5542 5542 5541 5541 5539 5538 5536 5534 5532 5530 5527 5523 5520 5516 5513 5509 5506 5502 5499 5495 5492 5489 5487 5485 5484 5483 5482 5481 5481 5480 5479 5479 5478 5477 5476 5475 5474 5474 5473 5473 5473 5472 5472 5472 5471 5471 5470 5470 5470 5469 5469 5469 5470
5502 5503 5504 5504 5505 5507 5508 5510 5512 5513 5515 5516 5518 5519 5520 5522 5524 5525 5527 5528 5530 5531 5533 5534 5536 5537 5538 5539 5540 5540 5541 5541 5541 5540 5539 5538 5537 5535 5533 5531 5528 5525 5522 5518 5515 5511 5507 5503 5499 5495 5492 5488 5485 5483 5481 5480 5479 5478 5478 5477 5476 5475 5475 5474 5473 5473 5472 5471 5470 5470 5469 5468 5468 5467 5466 5466 5465 5465 5464 5464 5464 5464 5464 5464 5465
5502 5503 5504 5505 5506 5507 5508 5510 5511 5512 5514 5515 5517 5518 5520 5521 5523 5524 5526 5528 5529 5531 5532 5533 5534 5535 5536 5537 5538 5539 5539 5539 5538 5538 5537 5536 5534 5532 5530 5527 5524 5521 5518 5514 5510 5506 5501 5497 5493 5489 5486 5482 5479 5477 5476 5476 5475 5475 5474 5473 5472 5471 5471 5471 5470 5469 5469 5468 5467 5466 5465 5464 5463 5462 5461 5460 5460 5459 5459 5459 5458 5458 5458 5458 5459
5501 5502 5503 5505 5506 5508 5509 5510 5511 5512 5513 5515 5516 5518 5519 5521 5522 5524 5525 5527 5528 5530 5531 5532 5533 5534 5535 5536 5537 5537 5537 5537 5537 5536 5534 5533 5530 5528 5526 5523 5520 5517 5513 5510 5505 5501 5496 5492 5487 5483 5480 5477 5474 5473 5473 5472 5472 5471 5470 5469 5469 5469 5468 5468 5467 5467 5466 5464 5463 5462 5461 5459 5458 5457 5456 5455 5455 5454 5453 5453 5452 5452 5452 5452 5453
5501 5502 5503 5505 5506 5508 5509 5510 5511 5512 5513 5514 5516 5517 5519 5520 5522 5523 5525 5526 5528 5529 5530 5531 5532 5533 5534 5535 5535 5535 5535 5535 5534 5532 5531 5529 5527 5524 5522 5520 5517 5513 5510 5506 5501 5496 5492 5487 5483 5479 5475 5472 5470 5470 5469 5469 5468 5468 5467 5466 5466 5466 5466 5466 5465 5464 5462 5461 5459 5458 5456 5455 5454 5453 5451 5450 5449 5448 5448 5447 5447 5446 5446 5447 5448
5502 5503 5504 5505 5506 5507 5508 5510 5511 5511 5513 5514 5515 5517 5518 5520 5521 5523 5524 5525 5527 5527 5529 5530 5531 5532 5533 5533 5533 5534 5533 5532 5530 5529 5527 5525 5523 5521 5519 5517 5514 5510 5506 5502 5498 5493 5488 5483 5479 5474 5471 5468 5467 5467 5466 5466 5465 5464 5464 5464 5464 5464 5464 5463 5462 5461 5459 5458 5456 5455 5453 5452 5450 5449 5447 5446 5445 5444 5443 5443 5442 5442 5442 5443 5444
5502 5503 5504 5505 5506 5507 5508 5509 5510 5511 5512 5514 5515 5517 5518 5519 5521 5522 5523 5524 5525 5526 5528 5529 5530 5530 5531 5532 5532 5531 5530 5529 5528 5526 5525 5523 5521 5519 5516 5514 5510 5507 5503 5499 5494 5489 5484 5479 5475 5471 5467 5466 5465 5464 5464 5463 5462 5462 5462 5462 5462 5462 5461 5460 5459 5458 5457 5455 5453 5452 5450 5449 5448 5446 5445 5444 5442 5441 5441 5440 5440 5439 5440 5440 5442
5502 5503 5504 5505 5506 5507 5508 5509 5510 5511 5512 5514 5515 5516 5518 5519 5520 5521 5522 5523 5524 5525 5526 5527 5528 5529 5530 5529 5529 5529 5528 5527 5525 5524 5522 5520 5518 5516 5513 5511 5508 5504 5500 5496 5491 5486 5481 5476 5472 5468 5465 5464 5463 5462 5461 5461 5460 5460 5460 5461 5461 5460 5460 5459 5458 5456 5455 5453 5451 5450 5449 5447 5446 5445 5443 5442 5441 5440 5439 5439 5438 5438 5439 5440 5441
5502 5503 5504 5505 5506 5507 5508 5509 5510 5511 5512 5514 5515 5516 5517 5519 5520 5520 5521 5522 5523 5524 5525 5526 5527 5527 5527 5527 5527 5526 5526 5524 5523 5521 5520 5518 5516 5513 5511 5508 5505 5501 5497 5493 5489 5484 5479 5474 5470 5467 5464 5462 5461 5460 5460 5459 5458 5458 5459 5459 5459 5459 5458 5457 5456 5455 5453 5452 5450 5449 5448 5447 5446 5445 5443 5442 5440 5439 5438 5438 5438 5438 5439 5440 5441
5501 5502 5504 5505 5506 5507 5508 5509 5510 5511 5512 5513 5514 5516 5517 5518 5518 5519 5520 5521 5523 5523 5524 5525 5525 5525 5525 5525 5525 5525 5524 5522 5521 5519 5517 5516 5513 5511 5508 5505 5502 5499 5495 5491 5487 5482 5477 5472 5468 5465 5463 5461 5460 5459 5458 5457 5457 5457 5458 5458 5458 5458 5457 5456 5455 5454 5452 5451 5450 5449 5448 5448 5446 5445 5444 5442 5441 5440 5439 5439 5438 5439 5440 5441 5442
5501 5503 5504 5505 5506 5507 5508 5509 5510 5511 5512 5513 5514 5515 5516 5517 5517 5519 5520 5521 5522 5522 5523 5523 5523 5523 5523 5523 5523 5523 5522 5520 5518 5517 5515 5513 5511 5508 5506 5503 5500 5497 5493 5489 5485 5481 5476 5472 5468 5464 5462 5460 5459 5458 5457 5456 5456 5456 5457 5457 5457 5457 5457 5456 5454 5452 5451 5451 5450 5450 5449 5448 5447 5446 5445 5444 5443 5442 5442 5441 5441 5441 5442 5443 5444
5502 5503 5504 5504 5505 5506 5507 5508 5509 5510 5511 5512 5513 5514 5515 5516 5517 5518 5519 5520 5520 5521 5521 5521 5521 5522 5522 5521 5521 5520 5519 5518 5516 5515 5513 5511 5509 5506 5504 5501 5498 5495 5492 5488 5484 5480 5476 5471 5467 5464 5461 5460 5459 5458 5457 5456 5456 5456 5456 5457 5456 5456 5456 5455 5453 5452 5451 5451 5451 5450 5450 5450 5449 5448 5447 5446 5446 5445 5445 5444 5444 5444 5445 5445 5446
5502 5502 5503 5504 5505 5506 5507 5508 5509 5510 5511 5512 5513 5513 5514 5515 5516 5517 5518 5519 5519 5520 5520 5520 5520 5520 5520 5519 5519 5518 5517 5515 5514 5513 5511 5509 5507 5505 5502 5500 5497 5494 5490 5487 5483 5480 5475 5471 5467 5463 5460 5459 5459 5458 5457 5456 5456 5456 5456 5456 5456 5456 5455 5454 5453 5451 5451 5451 5451 5452 5452 5452 5451 5450 5450 5449 5449 5448 5448 5448 5448 5448 5448 5449 5449
5502 5502 5503 5504 5505 5506 5506 5507 5508 5509 5510 5511 5512 5512 5513 5514 5515 5516 5517 5517 5518 5518 5518 5518 5518 5518 5518 5517 5516 5515 5514 5513 5512 5511 5509 5508 5506 5503 5501 5498 5496 5493 5490 5486 5483 5479 5476 5471 5467 5463 5460 5459 5458 5457 5457 5456 5456 5456 5456 5456 5456 5455 5455 5454 5452 5452 5451 5452 5452 5453 5453 5453 5453 5453 5453 5452 5452 5451 5451 5451 5451 5451 5451 5451 5452
5501 5502 5502 5503 5504 5505 5506 5507 5508 5509 5509 5510 5511 5512 5512 5513 5514 5515 5515 5516 5516 5516 5516 5516 5516 5516 5515 5514 5514 5513 5512 5511 5510 5509 5508 5506 5504 5502 5500 5497 5495 5492 5489 5486 5483 5479 5476 5472 5467 5463 5460 5458 5457 5457 5457 5456 5455 5455 5455 5455 5455 5455 5455 5454 5453 5452 5453 5453 5454 5454 5455 5455 5455 5455 5455 5455 5454 5454 5454 5454 5454 5454 5454 5455 5455
5500 5501 5502 5502 5503 5504 5505 5506 5507 5508 5508 5509 5510 5510 5511 5512 5513 5513 5513 5514 5514 5514 5514 5514 5514 5514 5513 5512 5511 5511 5510 5510 5509 5508 5506 5504 5503 5501 5498 5496 5494 5491 5489 5486 5483 5479 5476 5472 5468 5464 5461 5458 5457 5457 5456 5456 5455 5455 5455 5455 5455 5455 5455 5454 5453 5454 5454 5455 5455 5455 5456 5456 5457 5457 5457 5457 5456 5456 5456 5456 5457 5457 5457 5458 5458
5499 5500 5501 5501 5502 5503 5504 5505 5505 5506 5507 5508 5508 5509 5509 5510 5511 5511 5511 5512 5512 5512 5512 5512 5512 5511 5511 5510 5509 5509 5508 5508 5507 5506 5505 5503 5501 5499 5497 5495 5493 5490 5488 5485 5483 5479 5476 5473 5469 5465 5461 5459 5457 5456 5456 5456 5455 5455 5455 5455 5455 5455 5455 5455 5455 5455 5456 5456 5456 5457 5457 5457 5458 5458 5458 5458 5458 5458 5458 5458 5458 5459 5459 5460 5461